ATLAS 5 CENTAUR DEB, 44039

Orbit data source: Space-Track

ATLAS 5 CENTAUR DEB, 44039 is space debris in HEO originally from a launch on Wed, 17 Sep 2014 UTC launched from the Air Force Eastern Test Range (AFETR). Debris objects in space refer to the collection of defunct objects orbiting the Earth. Examples of debris include non-operational satellites, rocket bodies, and fragments generated from explosions, collisions, or faulty payload assembly.

Loading next visibility...
ATLAS 5 CENTAUR DEB details
Identifier
44039, 2014-055BZ
Orbit
HEO
Last TLE update2 weeks ago
Origin
Flag of USULA (US)
ManufacturerUnknown
MissionSpacecraft
Bus & MotorUnknown
MassUnknown
Launch date (UTC)
2014-09-17 (10 years ago)
Launch vehicleUnknown
Launch site
Air Force Eastern Test Range (AFETR)
Object type
Payload
Rocket body
Debris
Shape & HBRUnknown
Radar Cross SectionSmall (<0.1 m²)

Expand to show TLE details & history

TLE from 2 weeks ago
0 ATLAS 5 CENTAUR DEB
1 44039U 14055BZ  24336.31780792  .00000007  00000-0  00000-0 0  9997
2 44039  19.7852 184.9090 4957129  94.9002 321.1296  1.89427672 41810
Epoch: 2024-12-01T07:37Z
Definitive object data (Epoch: 2024-12-01T07:37:38.604Z)
Latitude-0.00003°
Longitude-0.05709°
Altitude15,303.151 km
Speed4.725 km/s
True Right ascension12h 20m 02s
True Declination0° 00' 00"
Sunlit
Object was in daylight at TLE epoch
Visualization TLE readout
Latitude6.06799°
Longitude161.59589°
Altitude10,823.341 km
Speed5.648 km/s
Apparent Right ascension23h 41m 25s
Apparent Declination-10° 02' 24"
Sunlit
Object is in daylight
Visualization observer readout
Local Sidereal Time21:34:01
Azimuth142.221° SSE
Elevation31.982°
Doppler factor1
Orbital elements
Apogee altitude34,893.639 km
Perigee altitude7,536.849 km
Semi-major axis27,593.381 km
Eccentricity0.4957129
Inclination19.7852°
RAAN184.909°
Arg. of periapsis94.9002°
True anomaly265.23697°
Mean anomaly321.1296°
Eccentric anomaly295.49255°
Mean motion0.47352 °/min
BSTARUnknown
Orbital period760.27 mins
Loading maneuver chart data...

ATLAS 5 CENTAUR DEB Visibility forecast

Observer location: undefined°, undefined

Span
Click to sort rows by Start time (UTC) header in descending order
Start Az.
Max El. time (UTC)
Max El. Az.
Max El.
End time (UTC)
End Az.
52 mins2024-12-11 23:09:53.147Z142.254° SSE2024-12-11 23:09:53.147Z142.254° SSE27.884°2024-12-12 00:01:53.147Z125.465° SE
|